Location: Ahstedt
(52.2048°N, 10.1060°E)
Time: 23:32:02
(UTC+00:00)

Cosmos 540 Rocket - Pass Details

Date: 15 April 2026
Orbit: 734 x 748 km, 74.1° (Epoch: 15 May)

Event Time Altitude Azimuth Distance (km) Brightness Sun altitude
Exits shadow 02:50:55 - 181° (S) 2,781 6.0 -13.4°
Reaches altitude 10° 02:52:19 10° 177° (S) 2,253 5.6 -13.2°
Maximum altitude 02:57:09 45° 106° (ESE) 1,018 4.5 -12.6°
Drops below altitude 10° 03:02:02 10° 35° (NE) 2,275 7.2 -12.0°
Sets 03:04:29 0° 29° (NNE) 3,205 7.9 -11.7°
